This demonstration page uses our WeatherBlox Daily Observations layout. Learn more.

Left ArrowRight Arrow

40.92945, -100.16068

Hourly Observations for October 9, 2016

Temp ( °F °C ) Dew Point ( °F °C ) Humidity (%) Winds ( mph kmh ) Pressure ( in mb ) Visibility ( mi km ) Precip ( " mm )
12:15 am 00:15 Clear 51 10.6 43 6 73 73 ENE 10 17 30.27 1025 10 16 N/A
12:35 am 00:35 Clear 51 10.5 43 6 74 74 E 9 15 30.27 1025 10 16 N/A
12:55 am 00:55 Clear 50 10 43 6 76 76 E 10 17 30.27 1025 10 16 N/A
1:15 am 01:15 Clear 50 9.9 43 6 77 77 E 8 13 30.27 1025 10 16 N/A
1:35 am 01:35 Clear 49 9.2 42 5.7 79 79 E 8 13 30.27 1025 10 16 N/A
1:55 am 01:55 Clear 48 8.7 42 5.6 81 81 E 8 13 30.30 1026 10 16 N/A
2:15 am 02:15 Clear 47 8.4 42 5.5 82 82 E 6 9 30.30 1026 10 16 N/A
2:35 am 02:35 Clear 46 8 42 5.5 84 84 E 6 9 30.30 1026 10 16 N/A
2:55 am 02:55 Clear 46 7.6 41 5.1 84 84 E 5 7 30.30 1026 10 16 N/A
3:15 am 03:15 Clear 46 7.5 41 5.1 85 85 E 5 7 30.30 1026 10 16 N/A
3:35 am 03:35 Clear 45 7 40 4.7 85 85 E 5 7 30.30 1026 10 16 N/A
3:55 am 03:55 Clear 44 6.7 40 4.7 87 87 N N/A 30.30 1026 10 16 N/A
4:15 am 04:15 Clear 44 6.5 40 4.5 87 87 E 3 6 30.30 1026 10 16 N/A
4:35 am 04:35 Clear 43 6.1 40 4.5 90 90 E 3 6 30.27 1025 10 16 N/A
4:55 am 04:55 Clear 42 5.4 39 4.1 91 91 N N/A 30.30 1026 10 16 N/A
5:15 am 05:15 Clear 42 5.5 39 4 90 90 E 3 6 30.30 1026 10 16 N/A
5:35 am 05:35 Clear 41 5.2 39 3.9 91 91 ESE 3 6 30.33 1027 10 16 N/A
5:55 am 05:55 Clear 41 5.1 39 3.7 91 91 E 3 6 30.30 1026 10 16 N/A
6:15 am 06:15 Clear 42 5.3 39 4 91 91 E 3 6 30.30 1026 10 16 N/A
6:35 am 06:35 Clear 40 4.6 38 3.4 92 92 E 3 6 30.30 1026 10 16 N/A
6:55 am 06:55 Clear 40 4.2 38 3.2 93 93 E 3 6 30.30 1026 10 16 N/A
7:15 am 07:15 Clear 40 4.5 38 3.5 93 93 E 3 6 30.30 1026 10 16 N/A
7:35 am 07:35 Clear 40 4.3 38 3.2 93 93 ESE 5 7 30.30 1026 10 16 N/A
7:55 am 07:55 Sunny 41 5.1 39 4 93 93 ESE 5 7 30.30 1026 10 16 N/A
8:15 am 08:15 Sunny 41 4.9 39 3.7 92 92 ESE 6 9 30.30 1026 10 16 N/A
8:35 am 08:35 Sunny 44 6.6 41 5.1 90 90 ESE 5 7 30.30 1026 10 16 N/A
8:55 am 08:55 Sunny 45 7.4 41 5.1 86 86 E 3 6 30.30 1026 10 16 N/A
9:15 am 09:15 Sunny 47 8.1 42 5.3 83 83 E 3 6 30.30 1026 10 16 N/A
9:35 am 09:35 Sunny 49 9.5 42 5.5 76 76 SE 5 7 30.27 1025 10 16 N/A
9:55 am 09:55 Sunny 51 10.6 42 5.6 71 71 SE 5 7 30.24 1024 10 16 N/A
10:15 am 10:15 Sunny 54 12 43 6 67 67 SSE 6 9 30.21 1023 10 16 N/A
10:35 am 10:35 Sunny 56 13.5 44 6.5 63 63 SSE 6 9 30.21 1023 10 16 N/A
10:55 am 10:55 Sunny 59 15.1 44 6.8 58 58 SSE 7 11 30.21 1023 10 16 N/A
11:15 am 11:15 Sunny 62 16.8 44 6.9 52 52 SSE 7 11 30.18 1022 10 16 N/A
11:35 am 11:35 Sunny 66 19 44 6.7 45 45 S 10 17 30.12 1020 10 16 N/A
11:55 am 11:55 Sunny 68 20.2 46 7.8 45 45 S 10 17 30.12 1020 10 16 N/A
12:15 pm 12:15 Sunny 71 21.4 47 8.5 44 44 S 12 19 30.12 1020 10 16 N/A
12:35 pm 12:35 Sunny 73 22.5 49 9.6 44 44 S 12 19 30.06 1018 10 16 N/A
12:55 pm 12:55 Sunny 73 23 50 10.1 44 44 S 14 22 30.06 1018 10 16 N/A
1:15 pm 13:15 Sunny 74 23.5 50 10.2 43 43 S 14 22 30.06 1018 10 16 N/A
1:35 pm 13:35 Sunny 75 24 51 10.3 42 42 S 14 22 30.03 1017 10 16 N/A
1:55 pm 13:55 Sunny 76 24.6 51 10.5 41 41 S 14 22 30.00 1016 10 16 N/A
2:15 pm 14:15 Sunny 77 25 51 10.7 41 41 S 14 22 29.97 1015 10 16 N/A
2:35 pm 14:35 Sunny 78 25.5 51 10.4 39 39 SSE 18 30 29.97 1015 10 16 N/A
2:55 pm 14:55 Sunny 78 25.3 50 10 38 38 S 18 30 29.97 1015 10 16 N/A
3:15 pm 15:15 Sunny 78 25.4 50 10.2 38 38 S 20 31 29.97 1015 10 16 N/A
3:35 pm 15:35 Sunny 77 25.2 51 10.3 39 39 S 20 31 29.97 1015 10 16 N/A
3:55 pm 15:55 Sunny 77 25 51 10.3 40 40 S 21 33 29.94 1014 10 16 N/A
4:15 pm 16:15 Sunny 78 25.6 52 11.2 41 41 S 18 30 29.94 1014 10 16 N/A
4:35 pm 16:35 Partly Cloudy 78 25.5 53 11.5 42 42 SSE 17 28 29.94 1014 10 16 N/A
4:55 pm 16:55 Sunny 78 25.4 52 10.9 40 40 S 20 31 29.94 1014 10 16 N/A
5:15 pm 17:15 Sunny 77 25 52 11 42 42 S 16 26 29.94 1014 10 16 N/A
5:35 pm 17:35 Sunny 76 24.2 52 11.3 44 44 S 18 30 29.94 1014 10 16 N/A
5:55 pm 17:55 Sunny 74 23.2 53 11.7 48 48 S 23 37 29.97 1015 10 16 N/A
6:15 pm 18:15 Sunny 72 22.1 53 11.6 51 51 S 18 30 29.97 1015 10 16 N/A
6:35 pm 18:35 Sunny 71 21.5 53 11.5 53 53 SSE 15 24 29.97 1015 10 16 N/A
6:55 pm 18:55 Sunny 70 21.2 53 11.5 54 54 S 17 28 29.97 1015 10 16 N/A
7:15 pm 19:15 Clear 69 20.5 53 11.5 56 56 SSE 16 26 29.97 1015 10 16 N/A
7:35 pm 19:35 Clear 67 19.7 53 11.5 59 59 SSE 15 24 30.00 1016 10 16 N/A
7:55 pm 19:55 Clear 67 19.5 53 11.5 60 60 SSE 14 22 30.00 1016 10 16 N/A
8:15 pm 20:15 Clear 66 18.8 53 11.5 63 63 SSE 13 20 30.00 1016 10 16 N/A
8:35 pm 20:35 Clear 65 18.5 52 11.2 63 63 SSE 12 19 30.00 1016 10 16 N/A
8:55 pm 20:55 Clear 64 18 50 10.2 61 61 SSE 13 20 30.00 1016 10 16 N/A
9:15 pm 21:15 Clear 64 17.6 47 8.4 55 55 SSE 14 22 30.00 1016 10 16 N/A
9:35 pm 21:35 Clear 63 17.4 44 6.5 49 49 SSE 17 28 30.00 1016 10 16 N/A
9:55 pm 21:55 Clear 64 17.7 42 5.3 44 44 SSE 15 24 30.00 1016 10 16 N/A
10:15 pm 22:15 Clear 63 17.3 40 4.7 44 44 SSE 17 28 30.00 1016 10 16 N/A
10:35 pm 22:35 Clear 62 16.9 41 5.1 46 46 SSE 15 24 30.03 1017 10 16 N/A
10:55 pm 22:55 Clear 62 16.5 42 5.5 48 48 SSE 15 24 30.03 1017 10 16 N/A
11:15 pm 23:15 Clear 61 16.2 42 5.7 50 50 SSE 15 24 30.03 1017 10 16 N/A
11:35 pm 23:35 Clear 61 16 43 6.2 52 52 SSE 15 24 30.03 1017 10 16 N/A
11:55 pm 23:55 Clear 60 15.8 45 7 56 56 SSE 15 24 30.00 1016 10 16 N/A

Powered by AerisWeather